Probability
0 0 0 0 0 0 0 0 0 0 0 0 0 0 3 23 10 16 39 58 81 81 77 77 74 68 68 65 68 71 61 61 71 71 68 68 71 74 74 77 77 71 65 61
0 0 0 0 0 0 0 0 0 0 0 0 0 0 6 16 13 26 39 58 65 74 74 77 77 68 68 61 71 74 68 61 68 71 68 68 71 71 71 77 84 71 68 58
0 0 0 0 0 0 0 0 0 0 0 0 0 0 6 19 16 26 35 58 58 71 68 71 68 68 65 68 68 61 68 71 68 68 61 61 71 68 61 68 74 68 61 55
0 0 0 0 0 0 0 0 0 0 0 0 0 0 10 23 29 23 35 42 52 65 61 61 71 65 68 65 65 68 68 61 68 58 61 61 58 55 55 55 68 65 58 52
0 0 0 0 0 0 0 0 0 0 0 0 0 0 3 23 19 23 45 35 42 61 71 65 65 65 58 65 68 68 65 65 58 58 61 65 61 55 48 61 58 61 65 45
0 0 0 0 0 0 0 0 0 0 0 0 0 0 0 6 16 29 35 48 39 55 61 58 52 58 55 61 61 61 61 58 55 61 65 65 55 65 55 58 58 58 55 45
0 0 0 0 0 0 0 0 0 0 0 0 0 0 10 13 3 19 35 45 48 61 68 58 55 58 61 65 58 58 61 61 58 61 61 68 71 74 74 61 52 45 55 52
0 0 0 0 0 0 0 0 0 0 0 0 0 0 3 6 3 23 35 32 42 52 65 61 55 61 65 61 58 55 58 68 65 68 65 68 74 68 65 58 48 45 45 42
0 0 0 0 0 0 0 0 0 0 0 0 0 3 6 10 3 16 26 39 42 52 65 55 58 61 55 58 58 55 58 61 61 58 61 55 61 55 58 61 52 55 61 52
0 0 0 0 0 0 0 0 0 0 0 0 0 0 6 13 10 19 26 35 42 61 65 58 58 55 61 61 65 58 58 58 61 55 45 42 65 61 68 58 61 65 61 61
0 0 0 0 0 0 0 0 0 0 3 0 0 0 3 16 19 16 23 35 42 52 58 61 61 61 61 58 55 55 58 58 58 55 55 55 55 61 65 61 71 68 74 68
0 0 0 0 0 0 0 0 0 0 6 3 0 3 3 6 6 10 19 32 42 52 55 58 68 65 58 58 61 58 52 52 55 52 52 52 55 58 61 61 65 68 71 74
0 3 0 0 0 0 0 0 0 0 6 3 0 6 0 0 10 16 23 35 55 71 68 68 77 71 65 58 61 61 61 52 48 45 48 55 55 52 58 65 68 68 68 65
0 0 0 0 0 0 0 0 0 0 3 0 0 6 6 6 26 29 42 61 55 74 81 74 77 74 71 74 68 65 65 55 52 52 48 52 55 55 55 58 65 65 68 65
0 0 0 0 0 0 0 0 0 0 0 0 0 6 10 19 26 35 48 61 68 77 81 81 81 74 74 74 74 68 61 61 58 58 55 58 58 61 61 61 61 65 65 55
0 0 0 0 0 0 0 0 0 0 0 0 3 6 13 29 29 48 52 48 68 77 74 81 81 81 81 81 74 74 71 71 71 71 61 65 68 65 65 65 71 68 68 68
0 6 0 0 0 0 0 0 0 0 0 0 0 6 23 26 35 48 65 58 71 77 81 81 81 84 84 81 77 77 77 81 77 74 71 71 71 65 68 65 71 68 71 71
10 10 3 0 0 0 0 0 0 0 3 3 6 13 19 29 39 61 65 71 68 68 74 77 77 77 84 84 84 81 84 84 81 74 71 71 71 65 65 71 74 71 71 68
3 13 0 0 0 0 0 0 0 0 0 3 10 19 26 42 48 48 58 61 71 61 65 68 68 74 77 74 77 77 74 77 74 71 65 65 65 65 61 61 65 65 61 61
0 0 0 0 0 0 0 0 0 0 0 13 26 45 35 45 39 39 45 52 48 45 45 58 58 55 55 65 68 68 61 65 65 58 55 58 61 58 58 52 52 52 61 55
0 0 0 0 0 0 0 0 0 0 6 32 32 42 42 42 52 39 39 39 42 45 42 48 48 48 48 52 52 45 45 39 42 39 42 52 52 48 48 52 48 52 42 42
0 0 0 0 0 0 0 3 10 19 23 26 29 39 26 29 29 32 35 32 26 23 26 29 39 39 45 45 42 39 39 39 35 35 35 35 35 32 32 39 35 35 35 35
3 0 0 6 3 3 3 3 10 13 16 19 23 23 26 16 16 26 29 23 16 16 19 19 19 19 26 32 32 32 32 32 26 23 23 19 19 16 19 16 19 16 23 19
3 3 3 3 3 3 6 6 10 6 10 13 10 13 13 13 19 26 19 16 16 19 19 16 16 16 16 16 16 16 19 19 19 19 16 16 10 10 10 6 10 13 6 3
0 0 0 0 0 3 3 3 6 10 6 10 13 10 10 10 16 19 10 13 13 13 10 10 13 13 10 10 16 16 16 13 10 10 10 6 3 0 0 0 0 0 0 0
0 0 0 0 0 3 3 3 6 10 6 10 6 0 0 6 10 6 3 3 3 3 6 6 10 10 10 10 10 10 10 13 13 6 6 3 0 0 0 0 0 0 0 0
Height
5868 5870 5870 5870 5871 5872 5872 5874 5875 5876 5877 5876 5874 5873 5872 5869 5867 5865 5862 5859 5856 5854 5851 5848 5845 5843 5841 5840 5840 5839 5841 5842 5844 5847 5849 5852 5856 5859 5863 5865 5868 5871 5873 5875
5864 5866 5866 5866 5867 5868 5870 5871 5872 5874 5873 5873 5871 5870 5869 5866 5864 5863 5859 5856 5854 5852 5849 5846 5843 5842 5841 5840 5839 5839 5840 5841 5843 5846 5848 5851 5853 5856 5860 5863 5867 5870 5872 5874
5859 5862 5861 5862 5863 5865 5866 5867 5868 5869 5869 5869 5868 5867 5864 5863 5861 5859 5857 5855 5852 5850 5847 5845 5842 5841 5840 5839 5838 5838 5839 5840 5842 5844 5846 5849 5852 5855 5858 5862 5865 5868 5870 5873
5854 5856 5857 5859 5860 5861 5862 5863 5864 5865 5865 5865 5866 5864 5862 5859 5857 5856 5855 5853 5851 5848 5846 5843 5841 5840 5838 5837 5837 5837 5838 5839 5840 5842 5845 5848 5851 5854 5857 5860 5863 5866 5869 5871
5849 5852 5853 5855 5856 5857 5858 5860 5860 5861 5861 5861 5862 5861 5861 5856 5854 5854 5853 5851 5849 5847 5844 5842 5840 5838 5836 5835 5835 5835 5836 5838 5839 5840 5843 5846 5849 5852 5855 5858 5861 5864 5867 5869
5845 5847 5849 5850 5852 5853 5854 5856 5856 5857 5857 5858 5859 5858 5858 5855 5853 5852 5851 5850 5848 5846 5844 5841 5839 5837 5835 5834 5834 5834 5835 5836 5837 5839 5842 5844 5847 5850 5853 5856 5859 5862 5865 5867
5840 5842 5844 5846 5848 5849 5851 5852 5854 5854 5855 5855 5854 5853 5855 5853 5852 5851 5850 5848 5847 5845 5842 5840 5838 5836 5835 5834 5834 5833 5834 5834 5836 5838 5840 5842 5845 5848 5851 5854 5857 5860 5863 5865
5836 5839 5841 5842 5843 5845 5847 5849 5851 5852 5853 5851 5849 5849 5851 5850 5850 5850 5849 5847 5845 5843 5842 5839 5837 5836 5835 5834 5833 5833 5833 5834 5835 5836 5838 5841 5843 5846 5849 5852 5855 5858 5861 5863
5833 5836 5837 5837 5839 5841 5843 5845 5848 5849 5849 5849 5848 5848 5848 5847 5847 5846 5846 5844 5843 5842 5841 5839 5837 5835 5834 5833 5832 5832 5832 5833 5834 5835 5836 5839 5841 5844 5847 5850 5853 5856 5859 5861
5828 5831 5834 5834 5836 5837 5839 5842 5844 5845 5846 5846 5847 5846 5844 5842 5843 5843 5842 5842 5841 5840 5839 5838 5836 5834 5833 5832 5832 5831 5831 5832 5833 5834 5835 5837 5839 5842 5844 5847 5850 5853 5856 5858
5823 5826 5829 5831 5832 5834 5836 5837 5839 5841 5843 5844 5844 5845 5840 5839 5839 5840 5839 5839 5839 5838 5837 5836 5835 5833 5832 5832 5831 5830 5830 5831 5832 5833 5834 5836 5837 5839 5842 5845 5848 5851 5853 5856
5817 5820 5823 5826 5829 5830 5832 5833 5835 5837 5838 5839 5839 5842 5837 5836 5834 5836 5837 5837 5836 5836 5836 5835 5834 5833 5831 5831 5830 5830 5830 5830 5831 5832 5833 5834 5836 5838 5840 5842 5845 5848 5850 5852
5810 5814 5818 5821 5826 5826 5827 5830 5831 5833 5835 5835 5836 5839 5834 5834 5833 5833 5833 5833 5834 5834 5833 5833 5832 5832 5831 5830 5830 5830 5829 5829 5830 5831 5832 5833 5835 5836 5838 5841 5843 5845 5847 5849
5804 5807 5812 5817 5818 5818 5818 5821 5825 5828 5829 5831 5832 5833 5831 5830 5829 5828 5829 5829 5831 5830 5830 5830 5830 5830 5830 5830 5829 5829 5829 5829 5829 5830 5831 5832 5833 5835 5837 5838 5840 5842 5844 5845
5797 5800 5803 5807 5809 5810 5811 5814 5817 5820 5823 5825 5826 5826 5826 5825 5824 5824 5824 5825 5826 5827 5827 5827 5828 5828 5829 5828 5828 5828 5829 5829 5829 5829 5830 5831 5831 5833 5834 5836 5837 5839 5840 5841
5788 5792 5795 5800 5803 5804 5805 5808 5811 5814 5816 5818 5820 5820 5819 5818 5818 5818 5818 5820 5822 5823 5824 5824 5825 5825 5826 5826 5826 5827 5827 5827 5827 5828 5828 5829 5829 5830 5832 5833 5834 5836 5837 5838
5780 5785 5789 5793 5797 5797 5799 5803 5805 5807 5809 5811 5812 5814 5812 5811 5810 5811 5814 5815 5816 5818 5819 5820 5820 5821 5822 5823 5824 5824 5824 5825 5825 5825 5826 5826 5827 5827 5829 5830 5831 5833 5834 5835
5773 5777 5781 5785 5789 5790 5795 5796 5797 5799 5802 5804 5804 5805 5805 5805 5805 5806 5807 5809 5811 5813 5814 5815 5817 5818 5819 5819 5820 5820 5821 5822 5822 5823 5823 5823 5824 5825 5826 5827 5828 5828 5829 5830
5767 5770 5774 5778 5780 5784 5787 5787 5789 5791 5793 5794 5795 5796 5797 5798 5799 5799 5801 5803 5805 5807 5808 5809 5811 5812 5813 5815 5815 5816 5817 5818 5818 5819 5819 5820 5820 5821 5822 5823 5823 5824 5824 5825
5759 5763 5767 5770 5773 5776 5779 5779 5780 5784 5784 5784 5785 5787 5788 5790 5792 5793 5794 5796 5798 5800 5802 5803 5805 5806 5808 5809 5810 5811 5812 5813 5813 5814 5815 5815 5816 5816 5817 5818 5818 5818 5818 5818
5753 5756 5760 5762 5765 5768 5770 5770 5773 5776 5776 5776 5777 5779 5781 5782 5784 5785 5786 5789 5791 5793 5794 5796 5798 5800 5802 5803 5804 5805 5806 5807 5808 5809 5809 5809 5810 5811 5811 5811 5811 5811 5812 5812
5747 5750 5753 5755 5758 5762 5760 5762 5765 5766 5766 5768 5769 5771 5772 5773 5774 5777 5780 5782 5784 5785 5787 5789 5791 5793 5795 5797 5798 5800 5801 5801 5802 5802 5802 5803 5804 5804 5805 5805 5805 5805 5805 5805
5740 5744 5746 5749 5752 5751 5752 5754 5755 5757 5758 5760 5761 5762 5762 5765 5766 5769 5772 5775 5777 5777 5779 5782 5785 5787 5789 5790 5792 5794 5795 5795 5796 5796 5796 5797 5797 5798 5798 5798 5798 5798 5797 5796
5734 5736 5738 5741 5743 5743 5744 5746 5748 5750 5751 5752 5753 5755 5756 5757 5760 5762 5765 5767 5770 5771 5773 5776 5778 5780 5782 5784 5786 5787 5788 5789 5789 5790 5790 5790 5790 5790 5790 5790 5790 5789 5789 5788
5728 5730 5731 5733 5735 5736 5737 5739 5740 5742 5743 5744 5746 5747 5749 5750 5753 5755 5758 5761 5762 5765 5767 5770 5772 5774 5776 5778 5779 5780 5781 5782 5782 5782 5782 5783 5783 5783 5782 5781 5780 5780 5780 5779
5722 5723 5725 5727 5728 5729 5730 5732 5734 5735 5736 5738 5739 5740 5742 5744 5746 5749 5751 5754 5756 5759 5761 5764 5766 5768 5769 5771 5772 5773 5774 5774 5775 5775 5775 5775 5775 5774 5774 5773 5773 5771 5771 5770
Wind_Speed
19 17 15 13 12 11 10 11 12 11 13 17 17 14 15 17 17 19 21 21 19 18 18 18 16 13 10 9 9 8 9 10 11 11 13 14 16 16 16 15 14 13 12 11
20 17 15 15 13 13 14 14 14 15 17 18 17 14 16 18 16 18 21 21 19 18 17 16 14 11 9 9 8 7 8 9 10 11 13 15 16 16 16 15 14 13 12 11
20 17 16 15 15 14 15 15 14 16 16 16 15 13 16 17 16 16 19 19 19 17 16 14 12 10 10 9 8 8 8 9 10 11 13 15 16 16 15 14 14 14 13 12
20 17 17 16 16 15 16 15 15 16 16 15 15 15 16 19 17 16 17 18 18 17 16 13 11 10 10 8 7 7 7 9 10 11 13 14 15 15 14 14 16 15 14 13
20 18 18 18 17 16 16 16 16 16 17 15 14 13 15 17 16 16 17 18 18 17 15 12 11 10 9 7 6 6 6 7 9 10 12 14 15 15 15 15 16 15 15 14
20 19 19 18 17 16 16 15 15 15 14 13 12 13 14 17 19 16 18 19 18 16 14 12 10 9 8 6 5 5 6 7 8 10 12 14 15 16 16 16 16 15 15 14
20 19 19 18 17 16 16 15 14 13 12 12 12 11 12 16 18 17 19 20 18 15 13 11 9 8 7 6 5 5 5 6 7 10 13 14 15 15 15 16 16 15 15 14
17 17 17 18 18 16 16 15 15 14 14 15 13 12 11 14 16 18 19 19 17 14 12 11 9 8 7 6 5 5 5 6 7 10 13 14 15 15 16 16 16 16 15 15
13 14 15 18 17 16 16 16 14 16 15 16 14 12 13 15 16 17 18 17 14 13 12 11 10 9 7 6 5 5 5 6 7 9 11 13 14 15 16 17 17 16 15 15
19 16 14 16 17 17 17 16 16 17 17 17 15 17 19 15 15 16 16 16 14 12 11 11 10 9 7 6 6 5 4 6 7 8 10 12 13 14 15 16 17 16 16 15
22 21 16 16 17 15 15 17 18 18 18 17 17 18 18 15 15 14 16 16 14 13 12 11 10 9 7 6 6 4 3 5 7 8 9 11 12 14 15 15 16 16 16 16
23 24 21 20 18 16 16 16 18 20 20 19 19 18 17 14 13 13 17 17 16 15 13 11 10 10 8 6 5 4 4 4 7 7 8 10 11 13 14 14 16 16 16 16
27 27 25 21 19 19 18 18 19 19 19 19 17 18 18 17 17 17 17 18 17 16 15 13 11 10 9 8 6 5 4 4 4 7 8 9 11 12 12 13 14 15 16 17
29 29 28 24 22 24 24 23 22 22 22 21 19 21 20 20 20 19 18 19 18 17 16 15 13 11 9 8 7 6 5 5 5 6 8 9 10 11 12 13 13 14 15 15
32 31 30 29 29 28 25 24 23 23 24 23 22 24 23 23 23 21 20 20 20 19 18 16 14 13 11 10 9 8 7 7 6 7 8 10 11 12 12 12 13 14 14 15
34 34 33 31 29 29 27 25 24 25 24 25 26 26 25 27 26 25 23 22 21 21 20 18 17 15 14 12 11 11 10 10 9 9 9 10 11 12 13 13 13 14 15 16
31 33 33 31 29 29 29 28 27 27 26 27 28 28 28 29 26 26 27 26 24 23 21 19 18 16 16 15 14 13 13 12 11 11 10 10 12 13 14 15 14 15 15 16
31 32 32 31 31 31 28 29 30 29 29 30 31 32 33 33 31 30 28 27 25 25 23 22 21 20 19 17 17 16 16 15 14 13 13 12 12 13 14 14 15 16 17 18
32 32 31 31 31 29 28 30 30 30 30 33 34 34 35 33 33 32 30 28 28 27 25 24 23 22 21 20 19 18 18 17 17 16 16 15 15 15 16 17 17 18 19 20
30 30 30 30 30 28 28 29 30 30 32 34 34 34 34 34 35 34 31 29 28 28 27 27 25 24 23 22 21 20 20 20 19 18 19 18 19 19 20 20 20 21 21 22
27 27 28 29 30 29 30 31 31 32 33 33 33 32 34 35 34 34 32 30 29 29 29 27 27 25 25 24 23 23 22 22 22 22 21 20 20 21 21 22 23 23 24 25
26 27 27 27 29 30 32 32 31 32 32 32 32 32 34 35 34 33 32 31 30 30 29 28 27 27 26 25 24 23 23 23 24 24 23 22 23 23 23 24 25 26 27 29
27 26 26 27 27 29 31 31 31 31 31 31 31 31 32 33 32 32 32 32 31 30 30 29 28 28 28 27 25 25 25 25 25 25 25 25 25 26 26 27 27 29 30 30
26 27 27 28 29 30 30 30 31 30 30 29 29 30 30 30 30 31 31 31 31 30 30 29 28 28 27 27 27 27 27 27 27 27 27 28 27 27 28 30 31 31 32 33
26 26 27 27 28 29 30 30 29 28 28 28 28 27 28 29 29 29 28 29 29 29 29 29 28 28 28 28 28 27 27 27 28 28 28 28 29 30 30 30 31 31 32 33
26 26 26 26 27 27 27 27 26 26 26 25 26 27 26 27 26 26 26 27 28 28 28 28 28 29 29 29 29 29 28 28 28 29 29 29 30 29 30 30 31 31 31 32
Wind_Direction
277 276 277 275 275 271 261 255 262 260 259 268 278 282 284 290 297 304 312 316 317 319 321 321 319 313 306 299 289 271 253 242 235 229 223 217 215 214 213 215 215 212 210 209
273 274 269 268 267 264 259 254 248 247 252 266 277 279 280 285 297 306 315 319 319 320 321 321 317 314 306 300 289 268 255 245 232 226 219 216 215 210 211 213 214 209 208 208
271 269 267 268 268 263 260 253 249 251 257 269 279 281 284 292 297 305 315 319 320 322 325 325 319 315 309 300 285 273 258 246 235 227 216 215 215 212 213 216 212 209 209 208
264 260 258 264 266 260 257 255 251 253 255 258 266 277 290 297 302 312 319 318 321 324 325 325 323 318 313 304 286 269 253 244 238 230 223 220 218 218 216 218 213 212 213 211
259 256 255 257 260 257 253 251 254 256 258 254 253 264 284 294 300 307 314 316 320 322 324 326 324 325 322 308 293 271 251 240 237 231 224 218 217 219 220 218 212 213 213 212
252 250 255 257 257 253 252 250 253 257 258 257 253 259 271 286 295 302 307 312 317 319 322 325 325 330 329 318 299 277 255 244 235 223 218 215 218 220 219 215 210 211 212 213
251 244 247 251 251 250 247 246 246 256 264 272 264 253 260 275 291 300 303 307 313 316 322 325 324 330 330 320 306 283 263 246 228 219 216 216 217 219 214 212 211 211 212 215
244 250 250 250 250 238 242 241 241 246 266 280 284 273 268 272 287 295 299 303 307 310 318 321 323 326 327 318 304 280 265 245 227 220 216 216 215 217 215 214 214 212 212 215
229 254 256 252 251 240 231 238 241 250 254 269 280 280 268 267 286 295 300 302 303 307 313 317 320 321 323 320 310 284 255 240 231 222 219 216 213 216 217 215 213 213 215 217
212 224 238 249 247 240 229 227 234 239 249 254 260 270 271 266 280 295 300 302 301 304 309 314 317 315 312 310 310 302 260 236 231 228 224 217 215 214 213 213 214 216 217 220
218 219 222 235 245 244 236 228 227 234 240 249 257 267 271 268 276 287 299 301 298 299 303 310 311 310 310 309 303 297 276 242 232 225 222 219 218 215 216 217 214 216 221 225
223 220 221 226 236 241 237 238 232 235 238 241 249 266 275 288 281 286 291 293 293 296 296 299 303 307 306 307 307 302 287 261 233 223 224 222 222 217 217 217 218 222 227 232
222 220 222 223 229 236 232 235 237 239 245 247 251 263 268 278 276 272 278 282 285 286 288 289 290 296 303 301 297 293 284 264 245 233 231 232 228 225 223 222 224 228 232 236
228 225 220 220 226 231 229 224 229 234 241 246 250 254 263 269 266 266 268 273 277 278 278 279 279 284 290 291 288 285 277 268 257 247 242 239 233 228 228 231 233 234 240 243
229 229 227 222 228 235 236 231 226 227 233 241 247 252 252 261 263 265 269 271 272 272 272 274 276 276 277 280 278 276 275 271 265 258 251 241 237 237 234 236 238 243 248 248
231 230 230 228 230 237 239 239 235 236 236 239 244 251 254 257 256 260 263 268 270 270 270 270 269 267 268 270 273 274 271 267 266 261 258 251 246 244 241 243 247 248 250 251
236 235 234 231 231 239 241 240 241 238 239 243 246 249 253 259 257 258 262 262 264 267 268 267 265 263 265 266 266 266 268 267 264 263 264 263 257 252 249 249 252 254 255 256
238 239 237 234 232 238 241 240 241 242 244 246 248 250 252 256 261 262 260 260 260 263 262 262 261 262 262 262 263 264 264 263 263 263 262 261 260 255 254 254 256 257 259 260
239 240 239 237 237 240 244 245 244 244 245 247 248 250 252 254 257 259 259 258 259 260 260 260 259 259 259 258 260 263 262 260 262 262 261 260 258 258 258 258 260 261 263 265
240 240 240 240 239 240 242 246 248 249 248 248 248 249 250 251 252 254 256 255 256 256 256 256 255 256 257 256 257 260 263 262 263 264 263 261 260 261 262 261 263 264 266 268
239 240 241 241 241 241 243 245 247 248 248 250 251 251 251 250 251 253 256 253 252 253 255 253 254 255 255 255 256 260 263 263 262 264 265 263 263 263 265 266 268 268 269 271
238 242 243 242 241 241 244 246 247 249 252 253 255 254 252 252 252 252 253 252 251 251 252 251 253 253 254 256 258 260 263 265 265 266 268 266 265 265 264 270 272 272 273 274
238 240 241 240 243 245 247 249 250 252 255 255 255 255 254 252 253 251 249 248 248 249 246 250 252 253 253 256 258 260 262 265 267 268 268 269 271 269 266 269 272 274 275 275
239 241 243 243 244 247 251 252 252 254 256 254 254 255 255 253 252 251 248 248 250 248 247 248 250 251 253 256 259 260 262 265 266 268 270 271 273 271 271 272 273 274 275 276
239 243 244 244 244 247 251 252 253 255 254 253 253 253 252 251 250 249 245 246 247 245 245 247 248 250 251 254 259 262 264 267 268 267 268 271 273 271 271 273 275 275 277 280
240 244 246 245 246 248 248 250 253 256 256 255 254 252 250 248 247 247 246 247 246 245 247 248 250 253 255 257 260 262 264 266 268 269 269 270 272 272 272 273 276 278 278 278